1320278434709,1.09000
1320278494709,1.08276
1320278554709,1.08250
1320278614709,1.08246
1320278674709,1.08059
1320278734709,1.08796
1320278794709,1.08796
1320278854709,1.09429
1320278914709,1.09558
1320278974709,1.09610
1320279034709,1.10794
1320279094709,1.11125
1320279154709,1.11339
1320279214709,1.11228
1320279274709,1.12915
1320279334709,1.13509
1320279394709,1.13989
1320279454709,1.15062
1320279514709,1.14816
1320279574709,1.14786
1320279634709,1.15567
1320279694709,1.15436
1320279754709,1.15554
1320279814709,1.16599
1320279874709,1.17302
1320279934709,1.17511
1320279994709,1.17465
1320280054709,1.16930
1320280114709,1.16514
1320280174709,1.15634
1320280234709,1.15604
1320280294709,1.14769
1320280354709,1.14504
1320280414709,1.13026
1320280474709,1.12756
1320280534709,1.12790
1320280594709,1.10962
1320280654709,1.10799
1320280714709,1.11311
1320280774709,1.09976
1320280834709,1.09679
1320280894709,1.09335
1320280954709,1.09007
1320281014709,1.10178
1320281074709,1.08513
1320281134709,1.08766
1320281194709,1.08823
1320281254709,1.08324
1320281314709,1.08695
1320281374709,1.08714
1320281434709,1.08893
1320281494709,1.08517
1320281554709,1.07907
1320281614709,1.08343
1320281674709,1.08421
1320281734709,1.08038
1320281794709,1.08957
1320281854709,1.08177
1320281914709,1.07742
1320281974709,1.08409
1320282034719,1.08537
1320282094719,1.08872
1320282154719,1.08408
1320282214719,1.08310
1320282274719,1.07728
1320282334719,1.08702
1320282394719,1.08116
1320282454719,1.08125
1320282514719,1.08577
1320282574719,1.08419
1320282634719,1.08393
1320282694719,1.08887
1320282754719,1.08381
1320282814719,1.08259
1320282874719,1.09044
1320282934719,1.08628
1320282994719,1.08564
1320283054719,1.07756
1320283114719,1.08068
1320283174719,1.08167
1320283234719,1.07717
1320283294719,1.08147
1320283354719,1.07977
1320283414719,1.08281
1320283474719,1.08192
1320283534719,1.09347
1320283594719,1.08918
1320283654719,1.09823
1320283714719,1.10226
1320283774719,1.11595
1320283834719,1.12173
1320283894719,1.12839
1320283954719,1.14058
1320284014719,1.13965
1320284074719,1.13772
1320284134719,1.13827
1320284194719,1.14396
1320284254719,1.12333
1320284314719,1.12741
1320284374719,1.12243
1320284434719,1.11726
1320284494719,1.11633
1320284554719,1.11188
1320284614719,1.10559
1320284674719,1.11618
1320284734719,1.10291
1320284794719,1.09387
1320284854719,1.09960
1320284914719,1.09777
1320284974719,1.09749
1320285034719,1.08661
1320285094719,1.08793
1320285154719,1.08847
1320285214719,1.09131
1320285274719,1.08425
1320285334719,1.08839
1320285394719,1.09115
1320285454719,1.08456
1320285514719,1.08531
1320285574719,1.09003
1320285634729,1.09690
1320285694729,1.09515
1320285754729,1.09638
1320285814729,1.09527
1320285874729,1.10222
1320285934729,1.10534
1320285994729,1.10215
1320286054729,1.10964
1320286114729,1.10036
1320286174729,1.10238
1320286234729,1.10735
1320286294729,1.11222
1320286354729,1.11819
1320286414729,1.10477
1320286474729,1.10727
1320286534729,1.10448
1320286594729,1.11591
1320286654729,1.11069
1320286714729,1.09128
1320286774729,1.10804
1320286834729,1.10336
1320286894729,1.08862
1320286954729,1.09949
1320287014729,1.09263
1320287074729,1.09103
1320287134729,1.09982
1320287194729,1.09826
1320287254729,1.09774
1320287314729,1.10039
1320287374729,1.09653
1320287434729,1.09051
1320287494729,1.09920
1320287554729,1.09841
1320287614729,1.09777
1320287674729,1.10563
1320287734729,1.10122
1320287794729,1.09974
1320287854729,1.10118
1320287914729,1.09787
1320287974729,1.10646
1320288034729,1.09613
1320288094729,1.10127
1320288154729,1.10424
1320288214729,1.09960
1320288274729,1.09026
1320288334729,1.10686
1320288394729,1.10546
1320288454729,1.09965
1320288514729,1.09563
1320288574729,1.10210
1320288634729,1.10326
1320288694729,1.08475
1320288754729,1.09325
1320288814729,1.08620
1320288874729,1.08853
1320288934729,1.09282
1320288994729,1.09432
1320289054729,1.10010
1320289114729,1.08931
1320289174729,1.09144
1320289234739,1.08617
1320289294739,1.09218
1320289354739,1.08712
1320289414739,1.08904
1320289474739,1.08717
1320289534739,1.07814
1320289594739,1.09402
1320289654739,1.08913
1320289714739,1.09248
1320289774739,1.08727
1320289834739,1.08998
1320289894739,1.10652
1320289954739,1.09362
1320290014739,1.08908
1320290074739,1.09907
1320290134739,1.09764
1320290194739,1.09703
1320290254739,1.09245
1320290314739,1.10117
1320290374739,1.09870
1320290434739,1.10873
1320290494739,1.10556
1320290554739,1.10939
1320290614739,1.12097
1320290674739,1.13622
1320290734739,1.13592
1320290794739,1.14093
1320290854739,1.13992
1320290914739,1.14863
1320290974739,1.15606
1320291034739,1.14258
1320291094739,1.15145
1320291154739,1.14896
1320291214739,1.15483
1320291274739,1.15322
1320291334739,1.15888
1320291394739,1.15707
1320291454739,1.14635
1320291514739,1.13838
1320291574739,1.13841
1320291634739,1.14310
1320291694739,1.13483
1320291754739,1.14273
1320291814739,1.14529
1320291874739,1.14325
1320291934739,1.13821
1320291994739,1.13388
1320292054739,1.14106
1320292114739,1.13659
1320292174739,1.13920
1320292234739,1.13658
1320292294739,1.13971
1320292354739,1.13859
1320292414739,1.13763
1320292474739,1.14366
1320292534739,1.14589
1320292594739,1.13792
1320292654739,1.14180
1320292714739,1.13912
1320292774739,1.14223
1320292834749,1.13954
1320292894749,1.14162
1320292954749,1.13384
1320293014749,1.13374
1320293074749,1.12873
1320293134749,1.13193
1320293194749,1.13302
1320293254749,1.12541
1320293314750,1.12436
1320293374749,1.12691
1320293434749,1.12253
1320293494749,1.12592
1320293554749,1.11968
1320293614749,1.10966
1320293674749,1.11239
1320293734749,1.11172
1320293794749,1.11405
1320293854749,1.11142
1320293914749,1.10312
1320293974749,1.11559
1320294034749,1.11252
1320294094749,1.10140
1320294154749,1.10586
1320294214749,1.10344
1320294274749,1.10374
1320294334749,1.09476
1320294394749,1.09824
1320294454749,1.10923
1320294514749,1.10573
1320294574749,1.10136
1320294634749,1.10367
1320294694749,1.10612
1320294754749,1.10058
1320294814749,1.10142
1320294874749,1.10307
1320294934749,1.09147
1320294994749,1.09101
1320295054749,1.09640
1320295114749,1.09155
1320295174749,1.09353
1320295234749,1.09155
1320295294749,1.09762
1320295354749,1.09889
1320295414749,1.09493
1320295474749,1.08677
1320295534749,1.08981
1320295594749,1.09127
1320295654749,1.08737
1320295714749,1.09021
1320295774749,1.09299
1320295834749,1.09123
1320295894749,1.07911
1320295954749,1.08522
1320296014750,1.09011
1320296074749,1.09769
1320296134749,1.08971
1320296194749,1.08942
1320296254749,1.09391
1320296314749,1.09643
1320296374749,1.09554
1320296434760,1.09480
1320296494760,1.09478
1320296554760,1.09656
1320296614760,1.09285
1320296674760,1.09912
1320296734760,1.09177
1320296794760,1.08698
1320296854760,1.08768
1320296914760,1.10007
1320296974760,1.08848
1320297034760,1.09138
1320297094760,1.08652
1320297154760,1.09031
1320297214760,1.09138
1320297274760,1.08480
1320297334760,1.09093
1320297394760,1.09002
1320297454760,1.09144
1320297514760,1.09753
1320297574760,1.09094
1320297634760,1.10172
1320297694760,1.08867
1320297754760,1.08917
1320297814760,1.09122
1320297874760,1.10310
1320297934760,1.09938
1320297994760,1.09987
1320298054760,1.09778
1320298114760,1.09558
1320298174760,1.09439
1320298234760,1.09918
1320298294760,1.09511
1320298354760,1.10573
1320298414760,1.10585
1320298474760,1.09318
1320298534760,1.10318
1320298594760,1.09769
1320298654760,1.09996
1320298714760,1.09604
1320298774760,1.08704
1320298834760,1.09553
1320298894760,1.10236
1320298954760,1.09809
1320299014760,1.08690
1320299074760,1.09798
1320299134760,1.10158
1320299194760,1.09976
1320299254760,1.09057
1320299314760,1.09670
1320299374760,1.10011
1320299434760,1.09434
1320299494760,1.09126
1320299554760,1.09876
1320299614760,1.09260
1320299674760,1.10455
1320299734760,1.09663
1320299794760,1.09265
1320299854760,1.09132
1320299914760,1.09316
1320299974760,1.10315
1320300034770,1.09834
1320300094770,1.09995
1320300154770,1.08964
1320300214770,1.09582
1320300274770,1.10158
1320300334770,1.09320
1320300394770,1.10193
1320300454770,1.10282
1320300514770,1.09601
1320300574770,1.09904
1320300634770,1.09976
1320300694770,1.10114
1320300754770,1.09377
1320300814770,1.09233
1320300874770,1.09718
1320300934770,1.10250
1320300994770,1.08784
1320301054770,1.09922
1320301114770,1.09300
1320301174770,1.10252
1320301234770,1.09196
1320301294770,1.09680
1320301354770,1.09438
1320301414770,1.08786
1320301474770,1.10354
1320301534770,1.09587
1320301594770,1.10195
1320301654770,1.08996
1320301714770,1.10353
1320301774770,1.09738
1320301834770,1.10355
1320301894770,1.10834
1320301954770,1.09814
1320302014770,1.10637
1320302074770,1.10457
1320302134770,1.10436
1320302194770,1.10965
1320302254770,1.10815
1320302314770,1.10847
1320302374770,1.09217
1320302434770,1.10132
1320302494770,1.09801
1320302554770,1.10246
1320302614770,1.10536
1320302674770,1.10537
1320302734770,1.10987
1320302794770,1.11259
1320302854770,1.10255
1320302914770,1.11442
1320302974770,1.11551
1320303034770,1.11333
1320303094770,1.12016
1320303154770,1.12452
1320303214770,1.12150
1320303274770,1.11912
1320303334770,1.11759
1320303394770,1.11905
1320303454770,1.12038
1320303514770,1.12488
1320303574770,1.11978
1320303634780,1.12001
1320303694780,1.12787
1320303754780,1.13638
1320303814780,1.13243
1320303874780,1.13721
1320303934780,1.13155
1320303994780,1.13426
1320304054780,1.13167
1320304114780,1.13640
1320304174780,1.13686
1320304234780,1.13058
1320304294780,1.12448
1320304834780,1.16086
1320304894780,1.17206
1320304954780,1.17880
1320305014780,1.17762
1320305074780,1.16043
1320305134780,1.16747
1320305194780,1.17246
1320305254780,1.16939
1320305314780,1.15817
1320305374780,1.15563
1320305434780,1.16670
1320305494780,1.15457
1320305554780,1.16174
1320305614780,1.15422
1320305674780,1.14748
1320305734780,1.13702
1320305794780,1.14271
1320305854780,1.14137
1320305914780,1.14333
1320305974780,1.13046
1320306034780,1.13263
1320306094780,1.12984
1320306154780,1.11501
1320306214780,1.11709
1320306274780,1.11175
1320306334780,1.11194
1320306394780,1.10874
1320306454780,1.11458
1320306514780,1.09868
1320306574780,1.10793
1320306634780,1.10517
1320306694780,1.09709
1320306754780,1.10470
1320306814780,1.09545
1320306874780,1.09287
1320306934780,1.09016
1320306994780,1.09059
1320307054780,1.09302
1320307114780,1.09133
1320307174780,1.09086
1320307234791,1.08914
1320307294791,1.08510
1320307354791,1.08631
1320307414791,1.08749
1320307474791,1.09728
1320307534791,1.07713
1320307594791,1.09389
1320307654791,1.09640
1320307714791,1.08428
1320307774791,1.08339
1320307834791,1.09091
1320307894791,1.07970
1320307954791,1.09116
1320308014791,1.08381
1320308074791,1.09185
1320308134791,1.08768
1320308194791,1.08657
1320308254791,1.09121
1320308314791,1.08324
1320308374791,1.08402
1320308434791,1.09551
1320308494791,1.08235
1320308554791,1.08129
1320308614791,1.08141
1320308674791,1.08477
1320308734791,1.08427
1320308794791,1.08023
1320308854791,1.08656
1320308914791,1.08645
1320308974791,1.09769
1320309034791,1.09029
1320309094791,1.08964
1320309154791,1.09641
1320309214791,1.09337
1320309274791,1.08833
1320309334791,1.08864
1320309394791,1.10161
1320309454791,1.08971
1320309514791,1.09354
1320309574791,1.09228
1320309634791,1.09736
1320309694791,1.08292
1320309754791,1.09056
1320309814791,1.08619
1320309874791,1.08719
1320309934791,1.09250
1320309994791,1.07821
1320310054791,1.07651
1320310114791,1.08263
1320310174791,1.07798
1320310234791,1.07510
1320310294791,1.06693
1320310354791,1.07306
1320310414791,1.07314
1320310474791,1.08312
1320310534791,1.07841
1320310594791,1.07815
1320310654791,1.08148
1320310714791,1.08061
1320310774791,1.07201
1320310834802,1.07750
1320310894802,1.07575
1320310954802,1.08212
1320311014802,1.07576
1320311074802,1.06643
1320311134802,1.07318
1320311194802,1.08060
1320311254802,1.08427
1320311314802,1.08353
1320311374802,1.07875
1320311434802,1.08138
1320311494802,1.08168
1320311554802,1.07928
1320311614802,1.08529
1320311674802,1.08381
1320311734802,1.07955
1320311794802,1.08215
1320311854802,1.08575
1320311914802,1.08863
1320311974802,1.08744
1320312034802,1.08673
1320312094802,1.08606
1320312154802,1.07380
1320312214802,1.07806
1320312274802,1.08059
1320312334802,1.07357
1320312394802,1.08018
1320312454802,1.08502
1320312514802,1.07071
1320312574802,1.07761
1320312634802,1.07859
1320312694802,1.08105
1320312754802,1.07674
1320312814802,1.08029
1320312874802,1.08148
1320312934802,1.08070
1320312994802,1.07569
1320313054802,1.09488
1320313114802,1.08559
1320313174802,1.09326
1320313234802,1.10094
1320313294802,1.10982
1320313354802,1.10841
1320313414802,1.11929
1320313474802,1.11903
1320313534802,1.11597
1320313594802,1.12114
1320313654802,1.12397
1320313714802,1.11658
1320313774802,1.12035
1320313834802,1.10800
1320313894802,1.10588
1320313954802,1.09925
1320314014802,1.09724
1320314074802,1.09138
1320314134802,1.09519
1320314194802,1.09205
1320314254802,1.09800
1320314314802,1.09745
1320314374802,1.09267
1320314434813,1.09972
1320314494813,1.10100
1320314554813,1.09681
1320314614813,1.09180
1320314674813,1.09499
1320314734813,1.10799
1320314794813,1.10416
1320314854813,1.10766
1320314914813,1.11141
1320314974813,1.11930
1320315034813,1.12827
1320315094813,1.13162
1320315154813,1.13353
1320315214813,1.13587
1320315274813,1.15064
1320315334813,1.13976
1320315394813,1.14874
1320315454813,1.14520
1320315514813,1.14425
1320315574813,1.13223
1320315634813,1.13503
1320315694813,1.12338
1320315754813,1.13058
1320315814813,1.12129
1320315874813,1.11793
1320315934813,1.11661
1320315994813,1.11302
1320316054813,1.10561
1320316114813,1.10736
1320316174813,1.10643
1320316234813,1.10541
1320316294813,1.11020
1320316354813,1.11497
1320316414813,1.11425
1320316474813,1.11726
1320316534813,1.12421
1320316594813,1.12416
1320316654813,1.12676
1320316714813,1.11969
1320316774813,1.13470
1320316834813,1.13921
1320316894813,1.14580
1320316954813,1.14001
1320317014813,1.15010
1320317074813,1.15044
1320317134813,1.15425
1320317194813,1.14980
1320317254813,1.16242
1320317314813,1.15472
1320317374813,1.14737
1320317434813,1.14707
1320317494813,1.14566
1320317554813,1.15230
1320317614813,1.15229
1320317674813,1.14450
1320317734813,1.14440
1320317794813,1.13600
1320317854813,1.13793
1320317914813,1.13544
1320317974813,1.11936
1320318034825,1.12081
1320318094825,1.12546
1320318154825,1.12579
1320318214825,1.13620
1320318274825,1.14140
1320318334825,1.17605
1320318394825,1.21741
1320318454825,1.22707
1320318514825,1.24280
1320318574825,1.26867
1320318634825,1.30649
1320318694825,1.34170
1320318754825,1.39804
1320318814825,1.44954
1320318874825,1.49344
1320318934825,1.49998
1320318994825,1.49122
1320319054825,1.45569
1320319114825,1.42415
1320319174825,1.41799
1320319234825,1.38363
1320319294825,1.36614
1320319354825,1.36067
1320319414825,1.35504
1320319474825,1.36538
1320319534825,1.35731
1320319594825,1.35202
1320319654825,1.35999
1320319714825,1.35634
1320319774825,1.36391
1320319834825,1.37080
1320319894825,1.36736
1320319954825,1.37436
1320320014825,1.37436
1320320074825,1.37356
1320320134825,1.37072
1320320194825,1.37099
1320320254825,1.36658
1320320314825,1.35467
1320320374825,1.35553
1320320434825,1.34291
1320320494825,1.33918
1320320554825,1.32918
1320320614825,1.31452
1320320674825,1.31248
1320320734825,1.29136
1320320794825,1.29276
1320320854825,1.27037
1320320914825,1.26159
1320320974825,1.25387
1320321034825,1.24679
1320321094825,1.23167
1320321154825,1.22437
1320321214825,1.20967
1320321274825,1.20481
1320321334825,1.19539
1320321394825,1.18734
1320321454825,1.18304
1320321514825,1.17059
1320321574825,1.16144
1320321634836,1.14997
1320321694836,1.14359
1320321754836,1.14048
1320321814836,1.13198
1320321874836,1.12768
1320321934836,1.12158
1320321994836,1.11713
1320322054836,1.11097
1320322114836,1.10821
1320322174836,1.10285
1320322234836,1.10493
1320322294836,1.09333
1320322354836,1.09319
1320322414836,1.09316
1320322474836,1.09748
1320322534836,1.09377
1320322594836,1.10533
1320322654836,1.08740
1320322714836,1.08993
1320322774836,1.08378
1320322834836,1.07939
1320322894836,1.08207
1320322954836,1.08084
1320323014836,1.07776
1320323074836,1.07984
1320323134836,1.07991
1320323194836,1.08099
1320323254836,1.07083
1320323314836,1.07821
1320323374836,1.07945
1320323434836,1.06925
1320323494836,1.06931
1320323554836,1.06610
1320323614836,1.06795
1320323674836,1.07536
1320323734836,1.06966
1320323794836,1.06054
1320323854836,1.05925
1320323914836,1.06389
1320323974836,1.06650
1320324034836,1.05651
1320324094836,1.06454
1320324154836,1.04961
1320324214836,1.05722
1320324274836,1.05381
1320324334836,1.06241
1320324394836,1.05139
1320324454836,1.06134
1320324514836,1.05876
1320324574836,1.06198
1320324634836,1.06851
1320324694836,1.07030
1320324754836,1.06992
1320324814836,1.06647
1320324874836,1.06312
1320324934836,1.06796
1320324994836,1.06218
1320325054836,1.06079
1320325114836,1.05012
1320325174836,1.05211
1320325234848,1.05853
1320325294848,1.05315
1320325354848,1.05027
1320325414848,1.05705
1320325474848,1.04490
1320325534848,1.05229
1320325594848,1.05295
1320325654848,1.05374
1320325714848,1.05319
1320325774848,1.06063
1320325834848,1.04535
1320325894848,1.05527
1320325954848,1.04996
1320326014848,1.05287
1320326074848,1.05060
1320326134848,1.06092
1320326194848,1.05786
1320326254848,1.05479
1320326314848,1.05679
1320326374848,1.06046
1320326434848,1.04964
1320326494848,1.05747
1320326554848,1.05066
1320326614848,1.05021
1320326674848,1.06984
1320326734848,1.05743
1320326794848,1.05738
1320326854848,1.05561
1320326914848,1.05419
1320326974848,1.04549
1320327034848,1.04882
1320327094848,1.05830
1320327154848,1.05192
1320327214848,1.05951
1320327274848,1.05284
1320327334848,1.04867
1320327394848,1.05084
1320327454848,1.05397
1320327514848,1.06028
1320327574848,1.05437
1320327634848,1.04804
1320327694848,1.05577
1320327754848,1.05358
1320327814848,1.05151
1320327874848,1.04769
1320327934848,1.05767
1320327994848,1.05205
1320328054848,1.05452
1320328114848,1.05555
1320328174848,1.05615
1320328234848,1.05557
1320328294848,1.05113
1320328354848,1.06138
1320328414848,1.04983
1320328474848,1.05279
1320328534848,1.05196
1320328594848,1.05521
1320328654848,1.05203
1320328714848,1.05554
1320328774848,1.04514
1320328834861,1.05638
1320328894861,1.04684
1320328954861,1.05790
1320329014861,1.04720
1320329074861,1.05244
1320329134861,1.05486
1320329194860,1.05990
1320329254860,1.06379
1320329314860,1.06607
1320329374860,1.07277
1320329434861,1.08478
1320329494861,1.07720
1320329554861,1.07859
1320329614861,1.08245
1320329674861,1.07937
1320329734861,1.07153
1320329794861,1.09217
1320329854861,1.07052
1320329914861,1.07194
1320329974861,1.06389
1320330034861,1.06633
1320330094861,1.06474
1320330154861,1.07511
1320330214861,1.06444
1320330274861,1.06994
1320330334861,1.06640
1320330394861,1.07131
1320330454861,1.07126
1320330514860,1.06861
1320330574860,1.06820
1320330634860,1.06968
1320330694860,1.07371
1320330754861,1.08006
1320330814861,1.07929
1320330874861,1.08659
1320330934861,1.08132
1320330994861,1.07991
1320331054861,1.08396
1320331114861,1.08519
1320331174861,1.08172
1320331234861,1.08516
1320331294861,1.09354
1320331354861,1.07507
1320331414861,1.07957
1320331474861,1.08647
1320331534861,1.08600
1320331594861,1.09842
1320331654861,1.10744
1320331714861,1.10953
1320331774861,1.13085
1320331834861,1.14539
1320331894860,1.14185
1320331954860,1.16170
1320332014860,1.17063
1320332074860,1.17627
1320332134861,1.18468
1320332194861,1.18448
1320332254861,1.19227
1320332314861,1.19416
1320332374861,1.19744
1320332434873,1.19290
1320332494873,1.17402
1320332554873,1.16264
1320332614873,1.16152
1320332674873,1.15078
1320332734873,1.13412
1320332794873,1.12880
1320332854873,1.13028
1320332914873,1.12411
1320332974873,1.12989
1320333034873,1.12506
1320333094873,1.14882
1320333154873,1.13986
1320333214873,1.14653
1320333274873,1.14413
1320333334873,1.15025
1320333394873,1.15852
1320333454873,1.16410
1320333514873,1.16360
1320333574873,1.17128
1320333634873,1.16783
1320333694873,1.17517
1320333754873,1.16500
1320333814873,1.16725
1320333874873,1.16547
1320333934873,1.15987
1320333994873,1.15510
1320334054873,1.14420
1320334114873,1.15004
1320334174873,1.15937
1320334234873,1.13680
1320334294873,1.14554
1320334354873,1.13607
1320334414873,1.14834
1320334474873,1.14547
1320334534873,1.14448
1320334594873,1.13776
1320334654873,1.13272
1320334714873,1.13643
1320334774873,1.13418
1320334834873,1.12582
1320334894873,1.12714
1320334954873,1.13392
1320335014873,1.12884
1320335074873,1.14506
1320335134873,1.13694
1320335194873,1.14247
1320335254873,1.13568
1320335314873,1.12812
1320335374873,1.12600
1320335434873,1.11984
1320335494873,1.13192
1320335554873,1.11878
1320335614873,1.11279
1320335674873,1.11649
1320335734873,1.11835
1320335794873,1.11370
1320335854873,1.11308
1320335914873,1.10373
1320335974873,1.11313
1320336034885,1.10952
1320336094885,1.11796
1320336154885,1.11587
1320336214885,1.11386
1320336274885,1.11265
1320336334885,1.11178
1320336394885,1.12103
1320336454885,1.11261
1320336514885,1.10839
1320336574885,1.10492
1320336634885,1.10018
1320336694885,1.09912
1320336754885,1.09742
1320336814885,1.08930
1320336874885,1.08889
1320336934885,1.09636
1320336994885,1.09277
1320337054885,1.08477
1320337114885,1.08696
1320337174885,1.08960
1320337234885,1.08708
1320337294885,1.09323
1320337354885,1.08582
1320337414885,1.08566
1320337474885,1.07186
1320337534885,1.08655
1320337594885,1.09071
1320337654885,1.08221
1320337714885,1.09327
1320337774885,1.07020
1320337834885,1.08482
1320337894885,1.07714
1320337954885,1.07579
1320338014885,1.07497
1320338074885,1.08756
1320338134885,1.08367
1320338194885,1.07120
1320338254885,1.06900
1320338314885,1.07470
1320338374885,1.07504
1320338434885,1.08185
1320338494885,1.07395
1320338554885,1.07554
1320338614885,1.06903
1320338674885,1.07495
1320338734885,1.07459
1320338794885,1.06721
1320338854885,1.07201
1320338914885,1.07257
1320338974885,1.07257
1320339034885,1.07819
1320339094885,1.06861
1320339154885,1.07760
1320339214885,1.07905
1320339274885,1.07279
1320339334885,1.07607
1320339394885,1.08566
1320339454885,1.08057
1320339514885,1.07671
1320339574885,1.08864
1320339634897,1.08719
1320339694897,1.08602
1320339754897,1.07851
1320339814897,1.07832
1320339874897,1.08644
1320339934897,1.07275
1320339994897,1.08095
1320340054897,1.07709
1320340114897,1.07819
1320340174897,1.08394
1320340234897,1.07726
1320340294897,1.07992
1320340354897,1.07187
1320340414897,1.08167
1320340474897,1.07799
1320340534897,1.08257
1320340594897,1.08769
1320340654897,1.08117
1320340714897,1.08105
1320340774897,1.06395
1320340834897,1.07299
1320340894897,1.06347
1320340954897,1.06308
1320341014897,1.06712
1320341074897,1.06928
1320341134897,1.06032
1320341194897,1.05822
1320341254897,1.05867
1320341314897,1.06005
1320341374897,1.06387
1320341434897,1.06264
1320341494897,1.06228
1320341554897,1.06404
1320341614897,1.06285
1320341674897,1.07813
1320341734897,1.06049
1320341794897,1.06281
1320341854897,1.06154
1320341914897,1.06501
1320341974897,1.06575
1320342034897,1.06817
1320342094897,1.06696
1320342154897,1.07426
1320342214897,1.07718
1320342274897,1.07447
1320342334897,1.07684
1320342394897,1.07458
1320342454897,1.08029
1320342514897,1.08916
1320342574897,1.07886
1320342634897,1.08513
1320342694897,1.08115
1320342754897,1.08282
1320342814897,1.08696
1320342874897,1.08178
1320342934897,1.09285
1320342994897,1.08381
1320343054897,1.08222
1320343114897,1.09318
1320343174897,1.09298
1320343234909,1.09859
1320343294909,1.10537
1320343354909,1.08606
1320343414909,1.10271
1320343474909,1.10780
1320343534909,1.11006
1320343594909,1.11499
1320343654909,1.12587
1320343714909,1.12761
1320343774909,1.12363
1320343834909,1.12746
1320343894909,1.11898
1320343954909,1.13127
1320344014909,1.12862
1320344074909,1.13454
1320344134909,1.13101
1320344194909,1.12447
1320344254909,1.13161